Wind_Speed
46 47 46 48 47 48 50 46 63 68 77 81 82 72 64 66 63 56 49 48 45 46 45 36 35 33 26 28 29 27 23 27 25 21 22 24 27 28 27 28 26 28 30 26
58 51 48 45 50 48 52 47 48 58 69 83 81 66 70 69 64 57 52 49 45 45 43 42 41 36 30 30 31 29 26 29 27 25 24 24 25 24 27 27 28 30 28 23
64 60 53 50 49 52 53 54 51 50 68 79 77 78 73 70 65 59 56 51 46 45 43 46 42 37 40 32 33 32 30 31 28 24 18 21 24 25 25 26 30 27 27 16
66 66 61 56 53 54 57 57 50 41 68 81 83 79 74 73 69 61 56 54 50 46 44 44 42 38 35 33 35 33 37 36 28 23 22 24 22 23 23 27 24 28 19 20
66 67 66 61 58 57 60 56 50 43 48 73 83 85 82 76 69 61 56 55 50 46 46 44 43 38 34 37 37 37 38 36 30 28 24 23 24 22 24 24 25 23 21 20
62 64 63 66 65 64 60 53 52 46 36 64 82 87 80 75 71 63 58 54 47 46 44 41 33 41 38 40 41 38 37 36 33 30 25 26 25 19 21 23 23 23 23 19
58 66 68 67 68 64 54 51 50 45 35 50 73 83 83 79 74 67 62 59 52 52 44 45 32 40 38 43 42 41 39 34 33 32 30 36 16 17 20 21 19 20 20 20
48 61 69 72 69 62 55 53 50 45 40 31 58 82 85 83 79 72 63 57 51 46 42 44 48 41 46 45 43 42 39 36 35 37 32 30 19 17 18 21 19 20 23 25
48 50 57 53 66 61 57 53 49 47 45 35 32 66 85 85 81 75 65 62 52 48 48 50 47 47 43 42 47 44 41 38 37 36 36 34 16 16 19 23 15 20 28 24
50 50 50 53 62 58 56 50 48 48 40 40 41 50 71 84 82 76 69 62 55 51 52 53 53 48 52 49 41 46 48 44 42 38 38 33 22 19 22 27 15 29 27 27
54 46 48 55 59 57 54 46 47 41 39 40 40 38 58 74 83 79 71 62 57 52 51 52 51 53 50 50 48 40 40 35 38 42 40 37 21 24 25 23 27 28 28 27
50 44 44 60 56 55 51 48 46 41 38 35 35 40 45 51 67 68 62 61 59 57 55 55 53 49 51 49 53 51 50 40 33 33 37 35 31 27 24 25 27 28 29 29
47 46 57 59 55 52 49 46 45 40 31 26 26 35 46 49 37 73 68 63 58 54 48 46 44 44 45 47 46 46 46 45 41 39 35 34 39 29 26 26 26 29 31 34
49 57 59 56 53 49 45 44 43 37 28 24 20 33 42 54 40 64 71 66 59 55 52 47 47 45 40 44 41 42 40 46 45 41 36 30 33 32 32 33 34 35 38 36
59 57 55 53 50 46 43 41 41 36 30 16 28 26 25 37 61 64 67 65 59 52 55 51 49 45 40 38 42 39 38 35 37 41 39 41 41 37 37 36 36 33 39 39
51 51 49 47 45 43 42 44 43 40 28 21 32 32 23 16 31 49 62 58 60 51 50 50 48 43 41 38 35 33 35 36 35 33 34 37 37 37 40 37 31 29 28 32
46 44 43 41 38 38 41 38 34 31 27 20 33 27 23 17 20 31 48 58 54 52 48 47 40 40 40 39 35 30 32 32 32 33 38 37 38 38 36 34 35 38 36 37
39 38 36 36 39 38 38 33 30 23 27 37 42 37 36 27 30 29 36 49 52 55 49 46 43 36 34 34 28 28 29 27 25 31 35 37 36 37 41 40 39 41 41 39
38 37 37 36 34 31 29 29 22 36 46 48 40 35 26 33 31 32 33 40 50 48 48 43 39 37 35 32 26 23 24 27 32 33 34 29 32 37 40 37 37 37 40 40
32 31 30 29 27 25 26 24 52 48 52 43 45 45 30 27 32 28 29 36 49 46 42 37 36 31 31 32 29 26 26 31 34 33 34 32 29 29 33 33 34 37 40 37
25 25 25 21 25 29 27 57 56 51 35 26 28 32 36 28 33 32 37 31 33 37 37 34 31 29 30 31 28 26 33 33 32 33 31 31 30 35 34 35 33 31 32 35
27 25 18 30 41 35 40 52 56 42 35 24 33 28 35 28 36 29 34 32 34 34 34 36 34 33 32 31 30 34 35 33 32 32 33 30 29 29 31 33 36 36 37 40
16 17 29 46 39 42 54 46 43 35 29 30 28 26 24 27 29 33 29 26 30 23 30 32 26 20 23 26 31 29 28 29 32 29 31 32 31 34 38 39 39 37 36 37
19 24 43 43 38 46 62 42 36 33 25 30 24 24 22 21 15 23 23 17 18 20 16 23 15 17 19 22 24 27 27 29 33 31 31 34 37 37 37 37 36 37 39 39
28 36 43 41 28 36 52 42 37 35 33 36 28 22 27 24 18 17 10 11 22 21 19 20 20 18 21 23 23 25 26 28 29 31 30 30 30 32 34 36 38 39 40 42
41 41 37 28 25 31 39 29 28 34 31 28 26 26 24 21 16 13 14 10 15 19 20 22 23 19 18 17 18 22 24 24 25 27 28 29 32 35 38 40 41 43 44 46
37 34 28 25 27 30 25 24 30 36 34 31 27 23 20 12 7 10 17 16 15 13 14 16 16 18 20 20 18 22 26 29 31 32 34 35 36 37 38 38 40 42 45 45
Wind_Direction
251 249 248 249 248 246 243 243 229 216 213 214 220 224 225 228 229 227 219 221 219 218 214 214 212 216 214 217 226 230 234 235 239 246 243 245 238 238 241 250 262 265 272 270
251 251 245 245 242 243 243 241 238 229 221 215 215 218 225 226 227 226 220 220 221 217 216 212 220 211 206 218 223 222 228 234 234 240 241 243 246 248 249 255 260 266 268 275
245 244 242 240 239 238 238 240 237 233 224 213 211 216 221 225 225 221 221 216 221 223 220 218 217 216 217 207 220 220 220 230 233 237 246 244 239 243 248 254 257 264 270 273
241 239 237 234 233 234 236 236 235 236 228 211 209 211 218 223 223 222 221 217 216 224 226 220 213 216 213 204 218 224 226 232 232 233 231 237 245 245 246 247 260 264 273 270
234 231 230 231 228 229 232 234 235 235 229 215 211 210 213 220 222 220 220 220 217 220 226 225 216 206 213 204 213 227 228 230 230 231 232 237 243 247 249 253 260 266 262 258
225 224 222 224 222 223 226 227 231 232 233 218 214 210 210 216 220 218 217 222 223 221 223 224 229 205 210 212 211 221 227 232 229 229 232 239 240 252 256 256 254 256 261 265
216 213 215 215 217 221 224 227 228 229 234 220 216 210 209 215 220 217 216 217 215 215 216 223 204 218 209 220 215 221 228 233 234 234 232 239 241 244 251 260 256 256 260 263
212 209 212 209 212 215 217 221 221 223 228 227 214 212 212 213 217 219 217 216 216 219 217 215 211 203 221 214 221 220 226 232 235 238 241 251 244 247 260 262 253 252 254 250
212 205 203 208 207 209 211 215 214 220 224 229 220 217 213 213 214 219 215 218 213 214 216 214 217 207 216 221 224 221 225 230 236 241 243 246 248 247 249 257 252 247 251 255
199 203 201 202 198 203 208 209 210 216 223 215 216 215 216 214 217 217 216 214 212 212 213 219 219 213 212 215 224 224 226 230 234 243 249 252 253 253 251 257 264 244 250 257
198 205 196 194 192 199 205 201 206 209 215 215 214 214 211 218 218 218 214 214 210 211 215 220 219 224 220 218 217 230 232 238 240 240 245 249 252 259 257 261 260 255 254 259
191 194 193 189 188 197 198 198 201 202 208 216 214 215 207 216 217 217 216 210 209 210 213 218 222 225 227 224 225 227 229 237 239 249 249 246 248 259 256 254 258 260 259 259
187 184 185 184 188 189 192 192 195 196 198 209 216 219 211 196 221 221 212 209 208 212 216 224 231 233 232 233 231 234 230 228 236 245 246 251 248 251 256 252 257 259 259 259
174 174 178 181 179 183 189 188 194 194 203 215 234 211 208 203 193 220 217 210 209 211 215 220 224 228 229 230 233 231 234 235 242 239 241 248 247 245 255 252 256 259 261 262
165 168 170 171 176 180 181 186 189 194 201 204 181 177 176 203 212 216 217 207 207 209 213 217 222 225 228 232 229 227 226 233 239 246 254 253 252 241 250 254 260 268 262 264
158 160 163 168 172 177 180 184 189 196 198 185 186 157 152 181 208 215 219 207 209 210 217 222 225 226 232 233 236 238 239 240 240 248 250 250 251 242 248 250 258 258 268 267
144 150 157 165 170 178 185 185 188 197 202 201 181 148 151 170 195 204 214 208 208 209 216 220 223 229 236 239 240 242 244 246 247 251 254 256 254 247 252 257 254 262 271 275
144 151 155 162 168 176 181 188 192 205 214 182 166 149 157 158 174 181 195 204 206 210 215 220 223 229 238 244 247 249 246 247 260 259 258 255 251 251 254 259 262 260 267 271
150 153 156 163 170 179 183 190 204 169 155 154 167 171 145 160 161 174 190 207 207 210 217 223 230 232 238 245 251 256 251 249 254 251 254 261 265 259 255 259 259 261 267 268
149 156 164 167 165 178 189 200 162 157 139 137 147 162 154 170 175 177 182 194 203 213 216 222 231 235 241 247 247 249 248 247 250 259 265 265 257 257 251 256 265 270 273 275
150 153 154 161 169 167 166 167 159 165 150 139 119 115 150 162 192 189 191 191 199 212 219 224 231 233 236 243 251 251 246 247 254 258 259 258 260 258 253 264 270 271 272 276
149 157 161 159 158 160 167 170 162 169 157 137 156 124 151 141 160 179 187 192 201 210 211 217 224 230 239 248 246 243 246 251 248 259 262 260 258 263 265 266 266 268 267 264
162 162 163 159 157 166 168 172 161 160 133 133 146 157 163 153 157 170 179 172 183 203 217 216 218 232 233 229 232 240 242 245 247 257 257 261 265 267 268 272 275 275 272 270
146 141 145 148 137 151 164 160 157 164 137 140 148 184 188 177 167 160 186 199 189 202 198 206 222 232 230 226 232 236 241 250 247 258 260 263 266 269 275 275 274 276 279 281
134 137 145 150 147 148 156 145 143 150 152 151 160 179 188 187 169 156 159 170 182 204 220 230 237 238 235 238 240 242 241 244 251 255 259 262 265 268 272 274 276 277 277 275
133 138 147 152 157 159 158 143 147 148 147 161 175 166 174 188 175 164 195 206 194 197 217 224 217 213 223 229 246 245 246 249 252 256 261 269 277 278 276 274 273 274 277 280
131 139 146 147 160 165 166 162 148 158 163 168 167 173 168 155 159 218 183 182 187 189 197 208 216 229 241 245 249 247 250 254 258 264 273 277 276 275 274 274 276 277 279 281
Height
5486 5490 5494 5498 5503 5508 5509 5514 5520 5536 5541 5547 5560 5589 5611 5617 5625 5635 5647 5652 5658 5665 5672 5679 5685 5692 5701 5705 5709 5711 5716 5717 5719 5722 5722 5724 5726 5728 5729 5731 5734 5733 5733 5736
5469 5475 5480 5484 5488 5493 5498 5501 5508 5516 5522 5529 5551 5589 5589 5601 5612 5624 5637 5644 5649 5655 5662 5669 5676 5684 5691 5696 5701 5704 5708 5709 5712 5715 5718 5719 5720 5724 5724 5726 5726 5725 5727 5729
5448 5457 5464 5470 5474 5479 5484 5489 5492 5500 5506 5527 5551 5558 5575 5587 5599 5612 5622 5633 5640 5645 5653 5659 5666 5673 5679 5688 5693 5697 5700 5702 5706 5710 5713 5713 5714 5717 5719 5720 5718 5720 5720 5723
5425 5436 5446 5453 5459 5464 5469 5474 5483 5494 5499 5513 5531 5546 5565 5573 5582 5600 5612 5622 5631 5637 5644 5650 5656 5663 5670 5677 5685 5689 5691 5694 5701 5704 5705 5705 5709 5710 5712 5712 5714 5713 5716 5716
5399 5412 5423 5433 5442 5448 5453 5463 5475 5482 5494 5513 5522 5528 5541 5559 5575 5591 5604 5613 5624 5631 5637 5641 5647 5654 5662 5668 5676 5680 5683 5687 5694 5696 5699 5700 5702 5704 5705 5706 5707 5708 5709 5710
5373 5388 5402 5415 5423 5429 5438 5454 5465 5475 5484 5492 5499 5513 5539 5553 5564 5579 5592 5604 5617 5624 5631 5633 5639 5647 5654 5659 5665 5671 5675 5680 5686 5690 5692 5693 5696 5699 5700 5701 5701 5702 5702 5704
5350 5366 5382 5395 5405 5418 5436 5446 5457 5466 5472 5475 5493 5512 5524 5538 5551 5565 5578 5589 5604 5612 5622 5626 5634 5638 5646 5652 5657 5663 5668 5674 5678 5681 5684 5681 5694 5694 5694 5694 5695 5695 5696 5697
5336 5349 5364 5378 5392 5410 5425 5435 5448 5459 5466 5478 5490 5498 5508 5522 5534 5549 5568 5582 5596 5605 5614 5617 5624 5630 5638 5644 5648 5654 5661 5666 5669 5671 5676 5680 5686 5689 5689 5688 5690 5689 5689 5690
5324 5336 5351 5366 5383 5401 5415 5426 5442 5450 5461 5472 5483 5488 5498 5509 5522 5538 5557 5569 5584 5594 5603 5606 5612 5621 5629 5635 5641 5649 5654 5659 5662 5664 5666 5669 5681 5682 5682 5681 5684 5682 5680 5682
5315 5328 5342 5358 5376 5394 5406 5420 5434 5443 5455 5462 5466 5473 5484 5500 5512 5529 5546 5560 5574 5584 5593 5598 5604 5613 5619 5625 5633 5641 5645 5650 5653 5659 5659 5665 5672 5675 5675 5674 5682 5673 5674 5675
5308 5322 5337 5354 5371 5387 5399 5418 5427 5440 5448 5454 5459 5465 5475 5486 5498 5515 5535 5548 5564 5577 5585 5591 5598 5604 5612 5618 5627 5633 5639 5643 5648 5652 5653 5655 5668 5667 5668 5670 5666 5667 5667 5668
5304 5319 5334 5351 5368 5382 5397 5411 5422 5433 5440 5449 5454 5462 5469 5481 5492 5509 5522 5551 5555 5566 5575 5582 5588 5596 5603 5612 5617 5626 5630 5635 5641 5645 5647 5651 5655 5658 5659 5660 5658 5658 5658 5659
5302 5316 5334 5352 5366 5381 5395 5407 5419 5429 5438 5445 5451 5457 5464 5477 5487 5500 5514 5535 5552 5563 5573 5579 5586 5592 5599 5605 5612 5618 5622 5628 5631 5636 5640 5643 5646 5650 5651 5650 5650 5650 5649 5649
5301 5318 5337 5352 5366 5381 5394 5406 5418 5430 5438 5442 5446 5448 5458 5471 5483 5491 5509 5527 5542 5553 5562 5569 5576 5584 5590 5596 5604 5610 5616 5618 5623 5627 5631 5635 5637 5641 5641 5640 5640 5641 5640 5641
5309 5326 5341 5354 5369 5382 5395 5407 5418 5428 5436 5441 5444 5448 5457 5466 5479 5487 5503 5524 5536 5545 5553 5560 5569 5575 5584 5589 5596 5601 5607 5613 5617 5620 5624 5624 5626 5628 5630 5632 5632 5630 5631 5632
5320 5333 5347 5360 5373 5385 5396 5405 5415 5424 5433 5441 5444 5451 5455 5462 5472 5486 5503 5523 5532 5541 5549 5556 5562 5570 5576 5582 5589 5597 5601 5604 5608 5611 5614 5614 5616 5618 5619 5621 5622 5621 5622 5622
5331 5343 5356 5368 5380 5390 5399 5410 5420 5426 5433 5442 5446 5449 5457 5466 5475 5486 5499 5517 5528 5537 5544 5550 5558 5565 5569 5575 5582 5589 5593 5596 5599 5602 5605 5606 5608 5609 5611 5612 5612 5611 5612 5612
5343 5353 5364 5374 5383 5392 5401 5410 5417 5423 5425 5432 5446 5450 5459 5468 5477 5485 5499 5513 5521 5529 5538 5544 5552 5559 5564 5567 5576 5580 5584 5588 5592 5593 5594 5594 5597 5599 5600 5601 5602 5602 5602 5600
5351 5360 5368 5377 5385 5393 5401 5408 5415 5421 5428 5434 5443 5450 5459 5470 5478 5487 5498 5509 5517 5527 5533 5541 5548 5554 5557 5562 5569 5573 5576 5579 5580 5581 5583 5587 5588 5587 5589 5590 5590 5591 5591 5589
5359 5367 5373 5379 5387 5392 5396 5402 5412 5420 5426 5434 5444 5451 5454 5472 5483 5488 5497 5506 5514 5523 5531 5537 5541 5548 5552 5555 5560 5566 5567 5569 5570 5573 5575 5576 5577 5577 5579 5580 5579 5579 5579 5578
5365 5371 5377 5383 5387 5391 5395 5403 5413 5420 5429 5433 5435 5444 5459 5473 5481 5488 5496 5504 5512 5519 5526 5532 5535 5540 5545 5548 5553 5558 5559 5560 5563 5565 5566 5567 5568 5569 5569 5569 5569 5568 5568 5567
5369 5374 5379 5384 5389 5394 5400 5406 5415 5421 5430 5435 5442 5448 5459 5468 5479 5486 5496 5502 5509 5513 5520 5524 5527 5533 5538 5543 5546 5547 5549 5551 5554 5556 5557 5557 5558 5559 5559 5559 5558 5558 5558 5557
5372 5377 5380 5387 5394 5398 5405 5412 5423 5431 5436 5442 5451 5456 5462 5470 5477 5486 5492 5498 5505 5511 5514 5518 5524 5528 5531 5534 5536 5539 5541 5543 5545 5547 5548 5549 5549 5550 5549 5548 5547 5546 5545 5544
5376 5381 5389 5397 5402 5408 5413 5423 5432 5437 5440 5446 5454 5459 5464 5471 5478 5484 5491 5496 5501 5505 5508 5514 5519 5521 5524 5526 5529 5532 5534 5536 5539 5540 5540 5540 5540 5539 5538 5538 5536 5534 5533 5531
5386 5391 5399 5405 5411 5418 5424 5429 5436 5442 5447 5454 5460 5465 5470 5475 5480 5485 5490 5494 5497 5501 5505 5510 5513 5515 5517 5520 5523 5525 5527 5529 5530 5531 5531 5531 5531 5530 5529 5528 5526 5524 5522 5519
5395 5401 5407 5414 5420 5425 5431 5436 5441 5447 5452 5457 5462 5467 5473 5477 5481 5486 5490 5493 5495 5499 5502 5504 5508 5510 5514 5516 5517 5519 5520 5521 5522 5522 5522 5522 5521 5520 5519 5517 5515 5512 5510 5508
5408 5414 5418 5422 5428 5433 5438 5444 5448 5453 5458 5463 5467 5471 5474 5477 5480 5485 5488 5491 5494 5496 5499 5502 5505 5507 5509 5510 5511 5512 5513 5514 5515 5515 5514 5514 5512 5511 5509 5506 5504 5501 5499 5496